Orbital Elements at Epoch 2459200.5 (2020-Dec-17.0) TDB
Reference: JPL 26 (heliocentric ecliptic J2000)
Element | Value | Uncertainty (1-sigma) | Units |
e | .2183508130415531 | 4.294e-08 | |
a | 2.759643984913963 | 1.6589e-08 | au |
q | 2.157073477102768 | 1.1065e-07 | au |
i | 10.24307279159671 | 3.8681e-06 | deg |
node | 88.87517299386293 | 1.9589e-05 | deg |
peri | 113.6044230690878 | 2.1762e-05 | deg |
M | 71.7717064941009 | 7.8409e-06 | deg |
tp | 2458866.667368307541 (2020-Jan-18.16736831) | 3.6037e-05 | TDB |
period | 1674.472480589033 4.58 | 1.5099e-05 4.134e-08 | d yr |
n | .2149930824025021 | 1.9386e-09 | deg/d |
Q | 3.362214492725159 | 2.0211e-08 | au |
|
| | Orbit Determination Parameters
Additional Information
|